Home > Weather > Brattleboro > Past weeks

Flag for U.S.A. Weather for the Past 2 Weeks in Brattleboro, Vermont, U.S.A.

Now
19 °F

Overcast.


Feels Like: 19 °F
Forecast: 19 / 31 °F
Wind: No wind

Location: Keene / Dillant

Current Time: Feb 9, 2016 at 6:53:25 AM

Latest Report: Feb 9, 2016 at 6:15 AM


Visibility: 4 mi

Pressure: 29.71 "Hg

Humidity: 68%

Dew point: 10 °F

Location of BrattleboroLocation

Historic Weather in Brattleboro — Graph

°F

Brattleboro Temperature Yesterday

Maximum temperature yesterday: 34 °F (at 12:55 AM)
Minimum temperature yesterday: 21 °F (at 1:35 PM)
Average temperature yesterday: 24 °F

High & Low Weather Summary for the Past Weeks

 TemperatureHumidityPressure
High55 °F (Feb 3, 6:35 PM)88% (Feb 3, 7:35 PM)30.37 "Hg (Feb 3, 7:35 PM)
Low9 °F (Feb 6, 6:55 AM)25% (Feb 8, 9:55 AM)29.38 "Hg (Jan 29, 12:35 PM)
Average32 °F64%29.98 "Hg
* Reported Jan 25 5:15 AM — Feb 9 5:35 AM, Brattleboro, Weather by CustomWeather, © 2016

Note: Actual official high and low records may vary slightly from our data, if they occured in-between our weather recording intervals... More about our weather records

Advertising

Brattleboro Weather History for the Previous 24 Hours

 ConditionsComfort  
Time TempWeatherWind HumidityBarometerVisibility
5:35 AM
Tue, Feb 9
19 °FPassing clouds.No wind63%29.71 "Hg10 mi
4:55 AM19 °FOvercast.6 mph68%29.71 "Hg10 mi
4:35 AM19 °FOvercast.3 mph68%29.72 "Hg10 mi
3:55 AM19 °FOvercast.5 mph68%29.72 "Hg10 mi
3:15 AM21 °FOvercast.7 mph63%29.74 "Hg10 mi
2:55 AM21 °FPassing clouds.6 mph68%29.74 "Hg10 mi
2:35 AM21 °FClear.No wind74%29.75 "Hg10 mi
2:15 AM19 °FClear.No wind86%29.75 "Hg7 mi
1:55 AM21 °FClear.No wind74%29.75 "Hg3 mi
1:15 AM21 °FClear.3 mph74%29.76 "Hg3 mi
12:55 AM21 °FClear.No wind80%29.76 "Hg2 mi
12:35 AM21 °FClear.No wind74%29.76 "Hg2 mi
11:55 PM
Mon, Feb 8
21 °FClear.No wind68%29.78 "Hg3 mi
11:35 PM21 °FClear.No wind74%29.78 "Hg2 mi
10:55 PM21 °FPassing clouds.5 mph74%29.78 "Hg3 mi
10:35 PM21 °FOvercast.3 mph80%29.78 "Hg2 mi
10:15 PM21 °FMostly cloudy.No wind80%29.78 "Hg2 mi
9:55 PM21 °FOvercast.No wind86%29.78 "Hg2 mi
9:35 PM21 °FMostly cloudy.No wind86%29.78 "Hg2 mi
9:15 PM21 °FPassing clouds.No wind80%29.78 "Hg3 mi
8:55 PM21 °FPassing clouds.No wind80%29.78 "Hg2 mi
8:35 PM21 °FOvercast.No wind86%29.78 "Hg2 mi
8:15 PM21 °FOvercast.No wind86%29.78 "Hg2 mi
7:55 PM21 °FOvercast.No wind86%29.78 "Hg2 mi
7:35 PM21 °FOvercast.No wind80%29.78 "Hg2 mi
7:15 PM21 °FMostly cloudy.3 mph80%29.78 "Hg2 mi
6:55 PM21 °FOvercast.3 mph80%29.78 "Hg2 mi
6:35 PM21 °FMostly cloudy.3 mph80%29.78 "Hg3 mi
6:15 PM21 °FOvercast.3 mph80%29.78 "Hg1 mi
5:55 PM21 °FOvercast.6 mph80%29.78 "Hg2 mi
5:15 PM21 °FPassing clouds.8 mph80%29.78 "Hg2 mi
4:55 PM21 °FSunny.8 mph80%29.77 "Hg3 mi
4:35 PM21 °FSunny.10 mph74%29.77 "Hg3 mi
4:15 PM21 °FPassing clouds.9 mph74%29.77 "Hg3 mi
3:55 PM21 °FBroken clouds.7 mph68%29.77 "Hg3 mi
3:35 PM21 °FPartly sunny.7 mph68%29.77 "Hg4 mi
3:15 PM23 °FMostly cloudy.13 mph63%29.76 "Hg4 mi
2:55 PM23 °FOvercast.14 mph68%29.77 "Hg6 mi
2:35 PM21 °FMostly cloudy.12 mph68%29.77 "Hg3 mi
2:15 PM21 °FMostly cloudy.7 mph68%29.77 "Hg2 mi
1:55 PM21 °FOvercast.8 mph68%29.78 "Hg1 mi
1:35 PM21 °FCold.15 mph58%29.79 "Hg2 mi
12:55 PM25 °FMostly cloudy.N/A39%N/A9 mi
12:35 PM25 °FMostly cloudy.13 mph36%29.81 "Hg10 mi
12:15 PM25 °FMostly cloudy.9 mph33%29.83 "Hg10 mi
11:55 AM25 °FMostly cloudy.6 mph30%29.85 "Hg10 mi
11:35 AM25 °FOvercast.9 mph28%29.87 "Hg10 mi
11:15 AM23 °FBroken clouds.8 mph28%29.87 "Hg10 mi
10:55 AM23 °FPartly sunny.8 mph28%29.88 "Hg10 mi
10:35 AM23 °FPartly sunny.7 mph28%29.89 "Hg10 mi
10:15 AM23 °FScattered clouds.10 mph28%29.89 "Hg10 mi
9:55 AM23 °FPassing clouds.7 mph25%29.90 "Hg10 mi
9:35 AM23 °FSunny.10 mph28%29.90 "Hg10 mi
9:15 AM23 °FSunny.9 mph30%29.90 "Hg10 mi
8:55 AM23 °FSunny.7 mph28%29.91 "Hg10 mi
8:35 AM23 °FSunny.8 mph28%29.91 "Hg10 mi
8:15 AM23 °FPassing clouds.14 mph28%29.90 "Hg10 mi
7:55 AM23 °FSunny.9 mph28%29.92 "Hg10 mi
7:35 AM23 °FSunny.13 mph28%29.91 "Hg10 mi
7:15 AM23 °FSunny.15 mph30%29.91 "Hg10 mi
6:55 AM25 °FPassing clouds.12 mph30%29.90 "Hg10 mi
6:35 AM25 °FClear.16 mph33%29.90 "Hg10 mi
6:15 AM25 °FClear.12 mph39%29.90 "Hg10 mi
Weather by CustomWeather, © 2016

See weather overviewHow to use our weather pages